Elefsis, Greece

6:17 AM EEST on September 20, 2017 (GMT +0300)
Elefsis Air Base

Weather History for LGEL - September, 2012

Change the Weather History Date:

Friday, September 7, 2012

  Actual Average Record
Temperature  
Mean Temperature 82 °F -  
Max Temperature 89 °F 79 °F 96 °F (2015)
Min Temperature 75 °F 62 °F 62 °F (2007)
Cooling Degree Days 17    
Growing Degree Days 32 (Base 50)    
Moisture  
Dew Point 54 °F    
Average Humidity 39    
Maximum Humidity 65    
Minimum Humidity 24    
Precipitation  
Precipitation 0.00 in - - ()
Sea Level Pressure  
Sea Level Pressure 29.92 in    
Wind  
Wind Speed 9 mph ()    
Max Wind Speed 18 mph    
Max Gust Speed 28 mph    
Visibility 6.2 miles    
Events      
Averages and records for this station are not official NWS values.
T = Trace of Precipitation, MM = Missing Value Source: Averaged Metar Reports

Daily Weather History Graph

Daily Weather History Graph

Search for Another Location

Airport or City:

Trip Planner

Search our weather history database for the weather conditions in past years. The results will help you decide how hot, cold, wet, or windy it might be!

Date:

Astronomy

Sep. 07, 2012 Rise Set
Actual Time 7:00 AM EEST 7:45 PM EEST
Civil Twilight 6:34 AM EEST 8:12 PM EEST
Nautical Twilight 6:02 AM EEST 8:44 PM EEST
Astronomical Twilight 5:30 AM EEST 9:16 PM EEST
Moon 11:33 PM EEST (9/7) 1:29 PM EEST (9/7)
Length of Visible Light 13h 38m
Length of Day
12h 45m
Waning Gibbous, 61% of the Moon is Illuminated
Sep 7
Waning Gibbous
Sep 8
Last Quarter
Sep 16
New
Sep 22
First Quarter
Sep 30
Full

Hourly Weather History & Observations

Time (EEST) Temp. Heat Index Dew Point Humidity Pressure Visibility Wind Dir Wind Speed Gust Speed Precip Events Conditions
12:50 AM 77.0 °F - 62.6 °F 61% 29.86 in - Calm Calm - N/A   Clear
1:50 AM 78.8 °F - 60.8 °F 54% 29.86 in - North 6.9 mph - N/A   Clear
2:50 AM 78.8 °F - 59.0 °F 51% 29.86 in - WNW 4.6 mph - N/A   Clear
3:50 AM 78.8 °F - 60.8 °F 54% 29.86 in - NW 5.8 mph - N/A   Clear
4:50 AM 77.0 °F - 60.8 °F 57% 29.86 in - NNW 11.5 mph - N/A   Clear
5:50 AM 77.0 °F - 60.8 °F 57% 29.86 in - NNW 8.1 mph - N/A   Clear
6:20 AM 77.0 °F - 62.6 °F 61% 29.86 in - NNW 13.8 mph - N/A   Clear
6:50 AM 75.2 °F - 62.6 °F 65% 29.89 in - NNW 9.2 mph - N/A   Clear
7:20 AM 77.0 °F - 62.6 °F 61% 29.89 in - NW 11.5 mph - N/A   Clear
7:50 AM 77.0 °F - 62.6 °F 61% 29.89 in - NNW 12.7 mph - N/A   Clear
8:20 AM 78.8 °F - 62.6 °F 57% 29.89 in - NNW 11.5 mph - N/A   Clear
8:50 AM 78.8 °F - 62.6 °F 57% 29.92 in - NNW 10.4 mph - N/A   Clear
9:20 AM 82.4 °F 82.9 °F 60.8 °F 48% 29.92 in - NNW 10.4 mph - N/A   Clear
9:50 AM 84.2 °F 83.8 °F 59.0 °F 42% 29.92 in 6.2 mi NNW 13.8 mph - N/A   Partly Cloudy
10:20 AM 84.2 °F 83.8 °F 59.0 °F 42% 29.92 in 6.2 mi North 18.4 mph - N/A   Partly Cloudy
10:50 AM 86.0 °F 85.4 °F 59.0 °F 40% 29.92 in 6.2 mi North 15.0 mph 26.5 mph N/A   Partly Cloudy
11:20 AM 86.0 °F 84.9 °F 57.2 °F 37% 29.92 in 6.2 mi North 15.0 mph - N/A   Partly Cloudy
11:50 AM 86.0 °F 84.9 °F 57.2 °F 37% 29.92 in 6.2 mi North 13.8 mph - N/A   Partly Cloudy
12:20 PM 87.8 °F 85.7 °F 53.6 °F 31% 29.92 in 6.2 mi North 11.5 mph - N/A   Partly Cloudy
12:50 PM 87.8 °F 85.7 °F 53.6 °F 31% 29.92 in 6.2 mi North 11.5 mph 25.3 mph N/A   Partly Cloudy
1:20 PM 89.6 °F 87.3 °F 53.6 °F 29% 29.92 in 6.2 mi North 11.5 mph 25.3 mph N/A   Partly Cloudy
1:50 PM 89.6 °F - 51.8 °F 27% 29.92 in 6.2 mi North 13.8 mph 27.6 mph N/A   Partly Cloudy
2:20 PM 89.6 °F - 51.8 °F 27% 29.92 in 6.2 mi North 12.7 mph 25.3 mph N/A   Partly Cloudy
2:50 PM 89.6 °F - 51.8 °F 27% 29.92 in 6.2 mi NNW 15.0 mph - N/A   Partly Cloudy
3:20 PM 89.6 °F - 50.0 °F 26% 29.92 in 6.2 mi North 11.5 mph 23.0 mph N/A   Partly Cloudy
3:50 PM 89.6 °F - 48.2 °F 24% 29.92 in 6.2 mi North 15.0 mph 26.5 mph N/A   Partly Cloudy
4:20 PM 87.8 °F - 46.4 °F 24% 29.92 in 6.2 mi NNE 11.5 mph 23.0 mph N/A   Partly Cloudy
4:50 PM 87.8 °F - 48.2 °F 25% 29.92 in - North 11.5 mph 23.0 mph N/A   Clear
5:20 PM 87.8 °F - 48.2 °F 25% 29.92 in - North 11.5 mph 23.0 mph N/A   Clear
5:50 PM 86.0 °F - 48.2 °F 27% 29.92 in - North 15.0 mph - N/A   Clear
6:20 PM 86.0 °F - 46.4 °F 25% 29.92 in - North 11.5 mph - N/A   Clear
6:50 PM 84.2 °F - 44.6 °F 25% 29.92 in - North 12.7 mph - N/A   Clear
7:20 PM 84.2 °F - 46.4 °F 27% 29.92 in - North 12.7 mph - N/A   Clear
7:50 PM 82.4 °F - 46.4 °F 28% 29.92 in - North 10.4 mph - N/A   Clear
8:20 PM 80.6 °F - 46.4 °F 30% 29.92 in - North 8.1 mph - N/A   Clear
8:50 PM 80.6 °F - 46.4 °F 30% 29.95 in - North 5.8 mph - N/A   Clear
9:20 PM 78.8 °F - 48.2 °F 34% 29.95 in - North 5.8 mph - N/A   Clear
9:50 PM 78.8 °F - 50.0 °F 36% 29.95 in - North 4.6 mph - N/A   Clear
10:20 PM 77.0 °F - 50.0 °F 39% 29.98 in - North 5.8 mph - N/A   Clear
10:50 PM 77.0 °F - 50.0 °F 39% 29.98 in - North 5.8 mph - N/A   Clear
11:20 PM 77.0 °F - 50.0 °F 39% 29.98 in - NNW 8.1 mph - N/A   Clear
11:50 PM 77.0 °F - 50.0 °F 39% 29.98 in - NNW 8.1 mph - N/A   Clear